Regional Weather Roundup
Issued by NWS

Home | Current Version | Previous Version | Text Only | Print | Product List | Glossary Off
Versions: 1 2 3 4 5 6 7 8 9 10 11 12 13 14 15 16 17 18 19 20 21 22 23 24 25 26 27 28 29 30 31 32 33 34 35 36 37 38 39 40 41 42 43 44 45 46 47 48 49 50

000
ASUS43 KMPX 280510
RWRMN
WEATHER ROUNDUP FOR MINNESOTA
NATIONAL WEATHER SERVICE TWIN CITIES/CHANHASSEN MN
1200 AM CDT THU AUG 28 2014


NOTE: "FAIR" INDICATES FEW OR NO CLOUDS BELOW 12,000 FEET WITH NO
SIGNIFICANT WEATHER AND/OR OBSTRUCTIONS TO VISIBILITY. N/A MEANS
CURRENT SKY AND/OR WEATHER CONDITIONS ARE NOT AVAILABLE.

MNZ060>063-068>070-280600-
   Twin Cities Metro

CITY           SKY/WX    TMP DP  RH WIND       PRES   REMARKS
TWIN CITIES    PTCLDY    66  58  75 E8        30.14S
ST PAUL        MOCLDY    65  58  78 SE3       30.15S
CRYSTAL        CLEAR     66  56  70 E5        30.13S
BLAINE         CLEAR     64  57  77 E7        30.14S
LAKEVILLE      CLEAR     59  57  94 CALM      30.14S
EDEN PRAIRIE   CLEAR     66  58  75 E3        30.13S
SOUTH ST PAUL  PTCLDY    66  57  74 CALM      30.14S
LAKE ELMO      FAIR      61  57  88 E3        30.16S
$$
MNZ001>005-007-008-013>017-022>024-027-028-280600-
   Northwest Minnesota

CITY           SKY/WX    TMP DP  RH WIND       PRES   REMARKS
BEMIDJI        CLEAR     58  56  93 S3        30.12S
HALLOCK        CLEAR     55  54  94 SE8       30.05F
ROSEAU         CLEAR     54  48  82 SE6       30.08S
WARROAD        CLEAR     55  48  76 S5        30.09S
THIEF RVR FALL CLEAR     55  54  94 SE5       30.09F
CROOKSTON      CLEAR     57  55  94 SE8       30.08F
FOSSTON        CLEAR     57  54  88 SE5       30.11F
DETROIT LAKES  CLEAR     63  59  88 SE7       30.12F
MOORHEAD       MOCLDY    64  63  94 SE6       30.07F
PARK RAPIDS    CLEAR     58  56  93 CALM      30.13S
MAHNOMEN       FAIR      57  55  94 SE6       30.10F
$$
MNZ006-009>011-018-025>026-280600-
   North Central Minnesota

CITY           SKY/WX    TMP DP  RH WIND       PRES   REMARKS
BAUDETTE       CLEAR     52  51  97 CALM      30.10S
FLAG ISLAND    CLEAR     66  55  68 S10       30.06F
INTL FALLS     CLEAR     46  45  96 CALM      30.12R
WASKISH        CLEAR     50  48  93 CALM      30.11S
BIG FORK       CLEAR     48  46  93 CALM      30.13F
LONGVILLE      CLEAR     52  52 100 CALM      30.13S FOG
GRAND RAPIDS   CLEAR     52  48  87 CALM      30.14S
CRANE LAKE     CLEAR     45  45 100 CALM      30.14S
ORR            CLEAR     52  48  87 CALM      30.11S
COOK           CLEAR     48  46  93 CALM      30.14S
WALKER         FAIR      57  55  94 CALM      30.13S
$$
MNZ012-019>021-037-280600-
   Northeast Minnesota

CITY           SKY/WX    TMP DP  RH WIND       PRES   REMARKS
DULUTH         PTCLDY    59  53  80 W5        30.14S
ELY            MOCLDY    48  46  93 CALM      30.14S
HIBBING        FOG       47  45  93 NW3       30.14S VSB 1/4
EVELETH        CLEAR     46  45  93 CALM      30.15S
DULUTH HARBOR  PTCLDY    61  57  88 S6        30.14S
TWO HARBORS    CLEAR     48  45  87 CALM      30.14R
SILVER BAY     CLEAR     46  46 100 CALM      30.14R
GRAND MARAIS     N/A     54  50  86 CALM      30.14F
G MARAIS ARPRT CLOUDY    46  43  87 CALM      30.17S
$$
MNZ029>031-032-039>041-046>048-054>057-064-280600-
   West Central Minnesota

CITY           SKY/WX    TMP DP  RH WIND       PRES   REMARKS
FERGUS FALLS   PTCLDY    64  57  77 SE5       30.09S
WHEATON        PTCLDY    61  57  88 SE8       30.09S
MORRIS         CLEAR     64  61  88 SE7       30.08F
ALEXANDRIA     CLEAR     63  58  83 SE8       30.13F
ELBOW LAKE     FAIR      64  60  86 SE7       30.09F
WADENA         PTCLDY    57  57 100 CALM      30.12F
GLENWOOD       CLEAR     59  57  94 E5        30.13S
APPLETON       MOCLDY    66  59  77 SE6       30.08F
BENSON         PTCLDY    63  59  88 SE6       30.10F
ORTONVILLE     PTCLDY    64  57  77 SE7       30.08S
MADISON        MOCLDY    68  61  77 SE6       30.09S
WILLMAR        FAIR      63  57  82 SE5       30.13S
$$
MNZ033>034-036-042>043-049>051-058-059-280600-
   Central Minnesota

CITY           SKY/WX    TMP DP  RH WIND       PRES   REMARKS
ST CLOUD       CLEAR     62  57  83 E5        30.13F
SAUK CENTRE    FAIR      60  58  91 CALM      30.13S
PAYNESVILLE    CLEAR     61  57  87 E3        30.13S
AITKIN         CLOUDY    55  52  88 CALM      30.13S
PINE RIVER     CLEAR     52  52 100 CALM      30.17S
BRAINERD       CLOUDY    58  57  97 CALM      30.15S
STAPLES        MOCLDY    59  57  94 CALM      30.13F
LONG PRAIRIE   FAIR      59  55  88 E3        30.14S
LITTLE FALLS   PTCLDY    57  54  88 CALM      30.13F
LITCHFIELD     CLEAR     63  61  94 CALM      30.14S
BUFFALO        CLEAR     64  56  75 E5        30.14F
MAPLE LAKE     CLEAR     64  59  82 E5        30.14S
$$
MNZ037-044-045-052-053-280600-
   East Central Minnesota

CITY           SKY/WX    TMP DP  RH WIND       PRES   REMARKS
PRINCETON      CLEAR     59  57  94 E1        30.14F
MORA           MOCLDY    57  55  94 CALM      30.16F
CAMBRIDGE      CLEAR     63  52  67 CALM      30.13S
RUSH CITY      CLOUDY    60  56  88 CALM      30.15S
MOOSE LAKE     CLEAR     50  50 100 CALM      30.14S FOG
HINCKLEY       CLOUDY    54  54 100 CALM      30.15S
CLOQUET        CLEAR     54  52  94 CALM      30.15S
MCGREGOR       CLEAR     54  52  94 CALM      30.16R
$$
MNZ071>073-080-081-089-090-097-098-280600-
   Southwest Minnesota

CITY           SKY/WX    TMP DP  RH WIND       PRES   REMARKS
MONTEVIDEO     MOCLDY    63  61  94 S6        30.11S
GRANITE FALLS  PTCLDY    63  57  82 SE6       30.11F
CANBY          PTCLDY    62  60  93 SE6       30.11S
MARSHALL       PTCLDY    63  57  82 S8        30.10S
REDWOOD FALLS  MOCLDY    63  58  83 SE7       30.11F
OLIVIA         PTCLDY    63  55  77 SE5       30.11S
PIPESTONE      CLOUDY    66  63  88 SE6       30.10F
WINDOM         CLOUDY    64  59  82 E7        30.12F
WORTHINGTON    CLOUDY    64  63  94 E6        30.12F
JACKSON        CLOUDY    63  59  88 E5        30.13F
TRACY          MOCLDY    64  60  88 S5        30.11F
SLAYTON        CLOUDY    64  62  90 CALM      30.12F
$$
MNZ065>067-074>077-082>085-091>093-280600-
   South Central Minnesota

CITY           SKY/WX    TMP DP  RH WIND       PRES   REMARKS
MANKATO        PTCLDY    63  55  77 SE8       30.13S
NEW ULM        CLOUDY    64  61  88 SE6       30.12S
ST JAMES       PTCLDY    63  59  88 E3        30.13F
FAIRMONT       MOCLDY    61  57  88 SE5       30.12F
GLENCOE        CLEAR     63  57  80 E3        30.12F
FARIBAULT      PTCLDY    61  54  77 CALM      30.15S
OWATONNA       PTCLDY    61  57  88 CALM      30.15S
WASECA         PTCLDY    59  54  82 E6        30.16S
ALBERT LEA     PTCLDY    63  57  82 SE5       30.15S
$$
MNZ078>079-086>088-094>096-280600-
   Southeast Minnesota

CITY           SKY/WX    TMP DP  RH WIND       PRES   REMARKS
ROCHESTER      CLEAR     60  57  89 S3        30.16F
RED WING       CLEAR     63  59  88 NE3       30.14S
STANTON        CLEAR     59  57  92 CALM      30.13S
DODGE CENTER   CLEAR     61  57  88 S3        30.16S
WINONA         CLEAR     61  59  94 CALM      30.15S
AUSTIN         PTCLDY    59  57  94 CALM      30.15F
PRESTON        CLEAR     62  61  99 CALM      30.17S
$$
ABBREVIATIONS USED IN REMARKS
   TC - TEMPERATURES IN CELSIUS
  WCI - WIND CHILL INDEX
   HX - HEAT INDEX
  VSB - VISIBILITY
$$



USA.gov is the U.S. government's official web portal to all federal, state and local government web resources and services.